Showing default

KAZEOSAT 2, 40010

Orbit data source: Space-Track

KAZEOSAT 2, 40010 is a payload satellite owned by Kazkosmos (KZ) in SSO that was launched on Thu, 19 Jun 2014 UTC via a DNEPR launch vehicle from the Orenburg, Russia (OREN). Payload-class satellites include a variety of spacecraft equipped with specific instruments for various scientific and technological missions. These include communications satellites like Starlink; space stations such as the ISS; scientific satellites like the Hubble; Earth observation satellites from companies like Planet Labs, Umbra, and HawkEye 360; GPS; miniature CubeSats for education and research; and military/defense satellites.

Loading next visibility...
Identifier
40010, 2014-033A
Orbit
SSO
Country
Flag of KZKZ / KAZ
Related business
Manufacturer
SSTL (Astrium)
Mission
Operational Civil Imaging
Bus & Motor
SSTL-150, AOCS
Mass
177 kg wet, 177 kg dry
Launch date (UTC)
2014-06-19 (12 years ago)
Launch vehicle
DNEPR
Launch site
Orenburg, Russia (OREN)
Object type
Payload
Rocket body
Debris
Shape & HBR
Box, 1.5 m
Radar Cross Section
1.500 m², Medium (>0.1 m² and < 1m²)

Expand to show TLE details & history
Last TLE update: 10 hours ago

TLE from 10 hours ago
0 KAZEOSAT 2
1 40010U 14033A   26112.31968225  .00000784  00000-0  96796-4 0  9994
2 40010  97.5446 314.8720 0009531 135.6992 224.4989 14.85402564640669
Epoch: 2026-04-22T07:40Z
TLE epoch observation values (Epoch: 2026-04-22T07:40:20.546Z)
Latitude
0.00005°
Longitude
-10.59643°
Altitude
620.118 km
Speed
7.546 km/s
True Right ascension
20h 59m 29s
True Declination
0° 00' 00"
Sunlit
Object was in daylight at epoch
Visualization orbit readout
Latitude
Unknown
Longitude
Unknown
Altitude
Unknown
Speed
Unknown
Apparent Right ascension
Unknown
Apparent Declination
Unknown
Sunlit
N/A
Visualization observer readout
Local Sidereal Time
00:40:00
Azimuth
Unknown
Elevation
Unknown
Doppler factor
Unknown
Orbital elements
Apogee altitude
616 km
Perigee altitude
602.681 km
Semi-major axis
6,987.478 km
Eccentricity
0.00095
Inclination
97.5446°
RAAN
314.872°
Arg. of periapsis
135.6992°
True anomaly
224.42242°
Mean anomaly
224.4989°
Eccentric anomaly
224.46065°
Mean motion
3.71589 °/min
Orbital period
96.88 mins
BSTAR
0.000096796
Loading maneuver chart data...
Computing Atmospheric mass density...
Loading historical data...
Loading historical data...
Loading historical data...
Loading historical data...
Loading historical data...
Loading historical data...
Loading historical data...

Documentation

Showing up to 5 results
|